Preview of NWS' New Version of Forecast
This preview is not operational and should not be used for support decisions.
Latest weather observations around

Plymouth, Plymouth Municipal Airport (KPYM)

Using English Units (Switch to International System of Units)
Date/ Time (EDT) Wind (mph) Vis. (mi) Weather Sky Cond. Temp (°F) Rel. Humidity Wind Chill (°F) Heat Index (°F) Pressure Precip. (in)
Air Dwpt 6 hour Altimeter (inHg) Sea level (inHg) 1 hr 3 hr 6 hr
Max Min
Sep 23 04:52 SSW 7 10 Clear CLR 67 64     90%     29.92 29.91      
Sep 23 03:52 SSW 8 10 Clear CLR 67 64     90%     29.93 29.92      
Sep 23 02:52 SSW 9 10 Clear CLR 67 64     90%     29.95 29.94      
Sep 23 01:52 SSW 8 10 Clear CLR 66 64     93%     29.97 29.97      
Sep 23 00:52 SSW 8 10 Clear CLR 65 63     93%     29.98 29.98      
Sep 22 23:52 S 5 10 Clear CLR 65 62     90%     30 30      
Sep 22 22:52 SSW 7 10 Clear   66 61     84%     30.01 30.01      
Sep 22 21:52 SSW 7 10 Clear CLR 66 61     84%     30.03 30.03      
Sep 22 20:52 SSW 7 10 Clear   66 61     84%     30.04 30.03      
Sep 22 19:52 SSW 8 10 Clear CLR 68 61     78%     30.04 30.04      
Sep 22 18:52 S 7 10 Clear CLR 69 63     81%     30.03 30.03      
Sep 22 17:52 SSW 8 10 Clear CLR 74 62     66%   74 30.03 30.03      
Sep 22 16:52 SSW 14 10 Clear CLR 79 60     52%   79 30.04 30.03      
Sep 22 15:52 SSW 14 10 Clear CLR 80 61     52%   81 30.06 30.05      
Sep 22 14:52 SW 11 10 Clear CLR 81 61     51%   82 30.07 30.06      
Sep 22 13:52 SW 11 10 Clear CLR 81 61     51%   82 30.08 30.08      
Sep 22 12:52 SSW 11 10 Clear CLR 80 62     54%   81 30.11 30.11      
Sep 22 11:52 SW 13 10 Clear CLR 79 62     56%   79 30.13 30.13      
Sep 22 10:52 SSW 10 10 Clear CLR 76 61     60%   76 30.15 30.15      
Sep 22 09:52 S 5 10 Clear CLR 72 64     76%   72 30.16 30.16      
Sep 22 09:05 SSW 5 9 Partly Cloudy SCT002 64 64     100%     30.17        
Sep 22 08:52 SSW 6 6 Fog/Mist BKN002 63 63     100%     30.17 30.17      
Sep 22 08:40 SSW 7 4 Fog/Mist OVC002 63 63     100%     30.17        
Sep 22 08:31 SSW 6 2 Fog/Mist OVC002 63 62     97%     30.18        
Sep 22 08:23 S 5 0.75 Fog/Mist OVC002 63 62     97%     30.18        
Sep 22 07:52 SSW 5 0.25 Fog VV002 61 61     100%     30.18 30.17      
Sep 22 07:29 S 3 0.25 Fog VV002 61 61     100%     30.17        
Sep 22 06:52 Calm 0.25 Fog   60 60     100%     30.16 30.16      
Sep 22 06:03 Calm 0.25 Fog   61 61     100%     30.17        
Sep 22 05:52 Calm 0.25 Fog VV002 61 61     100%     30.17 30.17      
Sep 22 05:38 Calm 0.25 Fog VV001 61 60     97%     30.17        
Sep 22 05:22 Calm 0.25 Fog VV002 59 58     96%     30.17        
Sep 22 05:13 Calm 1.25 Fog/Mist BKN002 58 57     97%     30.17        
Sep 22 05:04 Calm 2.5 Fog/Mist SCT001 59 58     96%     30.17        
Sep 22 04:52 Calm 4 Fog/Mist   60 59     96%     30.17 30.16      
Sep 22 03:52 Calm 7 Clear   57 56     96%     30.17 30.16      
Sep 22 02:52 Calm 5 Fog/Mist CLR 57 56     96%     30.18 30.18      
Sep 22 01:52 Calm 10 Clear   59 57     93%     30.19 30.19      
Sep 22 00:52 Calm 10 Clear   60 58     93%     30.19 30.19      
Sep 21 23:52 Calm 10 Clear CLR 60 58     93%     30.19 30.18      
Sep 21 22:52 Calm 10 Clear CLR 61 58     90%     30.19 30.19      
Sep 21 21:52 S 3 10 Clear CLR 64 57     78%     30.19 30.19      
Sep 21 20:52 S 3 10 Clear CLR 65 53     65%     30.18 30.18      
Sep 21 19:52 S 3 10 Clear CLR 67 55     66%     30.17 30.17      
Sep 21 18:52 SSE 3 10 Clear CLR 70 57     63%     30.16 30.16      
Sep 21 17:52 S 6 10 Clear CLR 75 58     55%   75 30.16 30.15      
Sep 21 16:52 SSE 8 10 Clear CLR 78 59     52%   78 30.15 30.15      
Sep 21 15:52 E 8 10 Clear CLR 80 59     49%   81 30.15 30.15      
Sep 21 14:52 NE 8 10 Clear CLR 79 58     49%   79 30.15 30.15      
Sep 21 13:52 Calm 10 Clear CLR 82 58     44%   82 30.16 30.16      
Sep 21 12:52   10 Clear CLR 81 57     44%   81 30.18 30.18      
Sep 21 11:52 3 10 Clear CLR 78 56     47%   78 30.19 30.19      
Sep 21 10:52 N 3 10 Clear CLR 76 56     50%   76 30.2 30.2      
Sep 21 09:52 Calm 10 Clear CLR 72 55     55%   71 30.21 30.21      
Sep 21 08:52 3 10 Clear CLR 66 55     68%     30.2 30.2      
Sep 21 07:52 Calm 10 Clear CLR 58 55     90%     30.19 30.19      
Sep 21 06:52 Calm 10 Clear CLR 51 50     96%     30.17 30.17      
Sep 21 05:52 Calm 10 Clear CLR 52 51     97%     30.16 30.16      
Sep 21 04:52 Calm 10 Clear CLR 52 50     93%     30.14 30.14      
Sep 21 03:52 Calm 10 Clear CLR 54 51     90%     30.14 30.14      
Sep 21 02:52 WNW 5 10 Clear CLR 57 52     83%     30.14 30.14      
Sep 21 01:52 W 3 10 Clear CLR 54 52     93%     30.13 30.13      
Sep 21 00:52 Calm 10 Clear CLR 55 53     93%     30.13 30.12      
Sep 20 23:52 Calm 10 Clear CLR 57 54     89%     30.12 30.12      
Sep 20 22:52 Calm 10 Clear CLR 58 55     90%     30.13 30.12      
Sep 20 21:52 Calm 10 Clear CLR 57 56     96%     30.13 30.13      
Sep 20 20:52 Calm 10 Clear CLR 59 57     93%     30.12 30.12      
Sep 20 19:52 Calm 10 Clear   61 57     87%     30.11 30.11      
Sep 20 18:52 Calm 10 Clear CLR 64 57     78%     30.11 30.11      
Sep 20 17:52 E 3 10 Clear   71 55     57%   71 30.1 30.1      
Sep 20 16:52 ENE 5 10 Clear CLR 72 53     51%   71 30.1 30.09      
Sep 20 15:52 NE 8 10 Clear CLR 73 54     51%   72 30.1 30.1      
Sep 20 14:52 NNW 7 10 Clear CLR 76 49     39%   75 30.11 30.11      
Sep 20 13:52 WNW 9 10 Clear CLR 75 51     43%   74 30.12 30.12      
Sep 20 12:52 7 10 Clear CLR 73 50     44%   72 30.14 30.14      
Sep 20 11:52 Calm 10 Clear CLR 70 49     47%     30.16 30.16      
Sep 20 10:52 SW 5 10 Clear CLR 68 51     55%     30.18 30.18      
Sep 20 09:52 WNW 5 10 Clear CLR 63 50     63%     30.2 30.2      
Sep 20 08:52 W 5 10 Clear CLR 55 49     80%     30.21 30.21      
Sep 20 07:52 Calm 10 Clear CLR 45 44     97%     30.21 30.21      
Sep 20 06:52 Calm 10 Clear CLR 42 40     92%     30.21 30.21      
Sep 20 05:52 Calm 10 Partly Cloudy SCT002 41 39     93%     30.21 30.21      
Sep 20 05:50 Calm 10 Partly Cloudy SCT002 41 39     93%     30.21        
Sep 20 05:23 Calm 10 Mostly Cloudy BKN001 42 41     96%     30.2        
Sep 20 05:18 Calm 10 Partly Cloudy SCT002 41 40     96%     30.2        
Sep 20 04:52 Calm 10 Clear CLR 43 42     97%     30.2 30.2      
Sep 20 03:52 Calm 10 Clear CLR 42 41     96%     30.2 30.2      
Sep 20 02:52 Calm 10 Clear CLR 42 41     96%     30.21 30.21      
May 15 05:52 S 5 1.5 Fog/Mist OVC002 55 55     100%     29.86 29.86      
May 15 03:17 SSW 7 10 Partly Cloudy SCT005 54 53     97%     29.91   0    
May 13 14:52 NE 8 10 Cloudy OVC014 52 47     83%     30.17 30.17      
May 12 18:41 E 5 10 Light Rain BKN004 BKN024 OVC031 52 51     97%     30.1   0    
May 12 14:59 ESE 5 7 Light Rain SCT009 BKN012 OVC031 54 52     93%     30.11   0    
May 12 14:44 SE 5 10 Cloudy BKN010 BKN013 OVC032 54 51     90%     30.13        
May 12 12:52 SE 3 3 Rain and Fog/Mist OVC050 53 50     89%     30.17 30.17 0    
May 12 03:52 Calm 10 Clear   46 43     89%     30.17 30.17      
May 11 21:52 Calm 10 Clear CLR 52 43     71%     30.11 30.11      
May 11 16:52 ESE 7 10 Clear CLR 67 35     31%     29.98 29.98      
May 11 12:52   10 Clear CLR 69        %     29.94 29.94      
Jun 11 17:52   10 Clear   83 60     46%   83 29.93 29.92      
Jun 11 01:52 SSW 5 10 Clear CLR 64 55     73%     30.02 30.01      
Jun 10 20:52 S 5 10 Clear CLR 71 53     53%   70 30 30      
Jun 10 05:52 Calm 10 Mostly Clear FEW002 53 52     96%     29.91 29.91      
Jun 09 17:52 SSW 6 10 Clear CLR 65 61     87%     29.69 29.68 0    
Jun 08 20:52 E 3 10 Clear CLR 57 46     67%     29.89 29.89      
Jun 08 10:52 S 3 10 Clear CLR 68        %     30.04 30.04      
Jun 08 01:52 Calm 10 Clear CLR 44 42     93%     30.03 30.03      
Jun 07 10:52 N 13 10 Cloudy OVC075 60 49     67%     29.96 29.96      
Jun 06 14:52   3 Light Rain and Fog/Mist BKN006 BKN010 OVC014 50 47     89%     29.8 29.8 0    
Jun 06 11:00 NE 15 2 Light Rain and Fog/Mist OVC005 50 47     89% 45   29.8   0    
Jun 06 07:17 NE 16 2 Light Rain and Fog/Mist OVC005 50 48     93% 44   29.76   0    
Jun 06 05:52   9 Light Rain OVC006 51 49     92%     29.74 29.74 0